| time (UTC) | temp F | wind direction | speed MPH | gust MPH | rain 1hr in | rain 24hr in | rain mn in | humidity % | barometer mb |
| 20260901085503 | 69 | 17 | 0.0 | 1.0 | 0.03 | 0.86 | 0.06 | 96 | 1010.8 |
| 20260901085003 | 69 | 23 | 0.0 | 1.0 | 0.03 | 0.86 | 0.06 | 96 | 1010.9 |
| 20260901084605 | 68 | 0 | 0.0 | 1.0 | 0.03 | 0.86 | 0.06 | 96 | 1012.5 |
| 20260901084504 | 69 | 35 | 0.0 | 1.0 | 0.03 | 0.86 | 0.06 | 96 | 1010.8 |
| 20260901084004 | 69 | 6 | 0.0 | 1.0 | 0.03 | 0.86 | 0.06 | 96 | 1010.7 |
| 20260901083504 | 69 | 28 | 0.0 | 1.0 | 0.03 | 0.86 | 0.06 | 96 | 1010.6 |
| 20260901083110 | 68 | 135 | 0.0 | 3.0 | 0.03 | 0.86 | 0.06 | 96 | 1012.3 |
| 20260901082504 | 69 | 171 | 1.0 | 2.0 | 0.02 | 0.85 | 0.05 | 96 | 1010.6 |
| 20260901082004 | 69 | 153 | 1.0 | 2.0 | 0.02 | 0.85 | 0.05 | 96 | 1010.8 |
| 20260901081554 | 68 | 0 | 0.0 | 2.0 | 0.02 | 0.85 | 0.05 | 96 | 1012.4 |
| 20260901081504 | 69 | 12 | 0.0 | 1.0 | 0.02 | 0.85 | 0.05 | 97 | 1010.7 |
| 20260901081004 | 69 | 26 | 1.0 | 2.0 | 0.02 | 0.85 | 0.05 | 96 | 1010.7 |
| 20260901080503 | 69 | 340 | 1.0 | 2.0 | 0.02 | 0.85 | 0.05 | 96 | 1010.8 |
| 20260901080101 | 68 | 89 | 0.0 | 3.0 | 0.02 | 0.85 | 0.05 | 96 | 1012.7 |
| 20260901075503 | 69 | 243 | 1.0 | 2.0 | 0.00 | 0.83 | 0.03 | 96 | 1011.4 |
| 20260901075004 | 69 | 160 | 0.0 | 1.0 | 0.00 | 0.83 | 0.03 | 96 | 1011.3 |
| 20260901074602 | 68 | 0 | 0.0 | 1.0 | 0.00 | 0.83 | 0.03 | 96 | 1013.1 |
| 20260901074504 | 69 | 319 | 0.0 | 1.0 | 0.00 | 0.83 | 0.03 | 96 | 1011.4 |
| 20260901074004 | 69 | 102 | 0.0 | 1.0 | 0.00 | 0.83 | 0.03 | 96 | 1011.3 |
| 20260901073503 | 69 | 84 | 0.0 | 2.0 | 0.00 | 0.83 | 0.03 | 96 | 1011.3 |
| 20260901073228 | 68 | 0 | 1.0 | 2.0 | 0.00 | 0.83 | 0.03 | 96 | 1013.0 |
| 20260901073004 | 69 | 222 | 1.0 | 2.0 | 0.00 | 0.83 | 0.03 | 96 | 1011.3 |
| 20260901072503 | 69 | 135 | 1.0 | 1.0 | 0.00 | 0.83 | 0.03 | 96 | 1011.3 |
| 20260901072003 | 69 | 150 | 1.0 | 1.0 | 0.00 | 0.83 | 0.03 | 96 | 1011.5 |
| 20260901071554 | 68 | 0 | 1.0 | 2.0 | 0.00 | 0.83 | 0.03 | 96 | 1013.3 |
| 20260901071504 | 69 | 148 | 1.0 | 2.0 | 0.00 | 0.83 | 0.03 | 96 | 1011.6 |
| 20260901071004 | 69 | 200 | 0.0 | 1.0 | 0.00 | 0.83 | 0.03 | 96 | 1011.8 |
| 20260901070504 | 69 | 53 | 0.0 | 1.0 | 0.00 | 0.83 | 0.03 | 96 | 1011.8 |
| 20260901070057 | 68 | 0 | 0.0 | 1.0 | 0.00 | 0.83 | 0.03 | 96 | 1013.5 |
| 20260901070004 | 69 | 268 | 0.0 | 1.0 | 0.00 | 0.83 | 0.03 | 96 | 1011.8 |
| 20260901065503 | 69 | 129 | 0.0 | 1.0 | 0.01 | 0.83 | 0.03 | 96 | 1011.8 |
| 20260901065003 | 69 | 145 | 0.0 | 1.0 | 0.01 | 0.83 | 0.03 | 96 | 1012.0 |
| 20260901064552 | 68 | 0 | 0.0 | 1.0 | 0.01 | 0.83 | 0.03 | 96 | 1013.8 |
| 20260901064003 | 69 | 109 | 0.0 | 1.0 | 0.01 | 0.83 | 0.03 | 96 | 1012.3 |
| 20260901063503 | 69 | 70 | 0.0 | 1.0 | 0.01 | 0.83 | 0.03 | 96 | 1012.3 |
| 20260901063109 | 68 | 0 | 0.0 | 1.0 | 0.01 | 0.83 | 0.03 | 96 | 1014.0 |
| 20260901063004 | 69 | 89 | 0.0 | 1.0 | 0.01 | 0.83 | 0.03 | 96 | 1012.3 |
| 20260901062504 | 69 | 27 | 0.0 | 1.0 | 0.03 | 0.83 | 0.03 | 96 | 1012.3 |
| 20260901062004 | 69 | 102 | 0.0 | 1.0 | 0.03 | 0.83 | 0.03 | 96 | 1012.3 |
| 20260901061602 | 68 | 0 | 0.0 | 2.0 | 0.03 | 0.83 | 0.03 | 96 | 1014.0 |
| 20260901061504 | 69 | 135 | 0.0 | 1.0 | 0.03 | 0.83 | 0.03 | 96 | 1012.5 |
| 20260901061004 | 69 | 102 | 1.0 | 2.0 | 0.03 | 0.83 | 0.03 | 96 | 1012.4 |
| 20260901060503 | 69 | 16 | 0.0 | 1.0 | 0.03 | 0.83 | 0.03 | 96 | 1012.5 |
| 20260901060059 | 68 | 0 | 0.0 | 1.0 | 0.03 | 0.83 | 0.03 | 96 | 1014.0 |
| 20260901060003 | 69 | 154 | 0.0 | 1.0 | 0.03 | 0.83 | 0.03 | 96 | 1012.4 |
| 20260901055504 | 69 | 157 | 0.0 | 1.0 | 0.02 | 0.82 | 0.02 | 96 | 1012.6 |
| 20260901055004 | 69 | 1 | 0.0 | 2.0 | 0.02 | 0.82 | 0.02 | 96 | 1012.6 |
| 20260901054553 | 68 | 0 | 0.0 | 1.0 | 0.02 | 0.82 | 0.02 | 96 | 1014.1 |
| 20260901054504 | 69 | 29 | 0.0 | 1.0 | 0.02 | 0.82 | 0.02 | 96 | 1012.6 |
| 20260901054004 | 69 | 143 | 0.0 | 1.0 | 0.02 | 0.82 | 0.02 | 96 | 1012.9 |
| 20260901053503 | 69 | 171 | 0.0 | 2.0 | 0.02 | 0.82 | 0.02 | 96 | 1012.9 |
| 20260901053056 | 68 | 161 | 0.0 | 2.0 | 0.02 | 0.82 | 0.02 | 96 | 1014.5 |
| 20260901053003 | 68 | 142 | 0.0 | 1.0 | 0.02 | 0.82 | 0.02 | 96 | 1013.0 |
| 20260901052503 | 68 | 61 | 0.0 | 1.0 | 0.00 | 0.80 | 0.00 | 96 | 1013.1 |
| 20260901052004 | 69 | 81 | 1.0 | 1.0 | 0.00 | 0.80 | 0.00 | 96 | 1013.1 |
| 20260901051616 | 68 | 0 | 0.0 | 1.0 | 0.00 | 0.80 | 0.00 | 96 | 1014.8 |
| 20260901050504 | 68 | 85 | 0.0 | 0.0 | 0.00 | 0.80 | 0.00 | 96 | 1013.1 |
| 20260901050055 | 68 | 0 | 0.0 | 2.0 | 0.00 | 0.80 | 0.00 | 96 | 1014.8 |
| 20260901045004 | 69 | 111 | 0.0 | 1.0 | 0.00 | 0.80 | 0.00 | 96 | 1013.1 |
| 20260901044602 | 68 | 0 | 0.0 | 1.0 | 0.00 | 0.80 | 0.00 | 96 | 1014.7 |
| 20260901044004 | 69 | 52 | 0.0 | 1.0 | 0.00 | 0.80 | 0.00 | 96 | 1013.1 |
| 20260901043503 | 69 | 31 | 0.0 | 1.0 | 0.00 | 0.80 | 0.00 | 96 | 1013.1 |
| 20260901043055 | 68 | 0 | 0.0 | 1.0 | 0.00 | 0.80 | 0.00 | 95 | 1014.7 |
| 20260901042004 | 69 | 130 | 0.0 | 2.0 | 0.00 | 0.80 | 0.00 | 96 | 1013.1 |
| 20260901041559 | 68 | 240 | 0.0 | 2.0 | 0.00 | 0.80 | 0.00 | 96 | 1014.6 |
| 20260901041504 | 69 | 237 | 0.0 | 1.0 | 0.00 | 0.80 | 0.00 | 96 | 1013.0 |
| 20260901041007 | 69 | 215 | 2.0 | 2.0 | 0.00 | 0.80 | 0.00 | 96 | 1013.0 |
| 20260901040504 | 69 | 160 | 0.0 | 1.0 | 0.00 | 0.80 | 0.00 | 96 | 1013.0 |
| 20260901040059 | 69 | 0 | 0.0 | 1.0 | 0.00 | 0.80 | 0.00 | 95 | 1014.7 |
| 20260901040003 | 69 | 83 | 0.0 | 1.0 | 0.00 | 0.80 | 0.00 | 96 | 1013.1 |
| 20260901035504 | 69 | 65 | 0.0 | 1.0 | 0.00 | 0.80 | 0.80 | 96 | 1013.1 |
| 20260901035004 | 69 | 105 | 0.0 | 1.0 | 0.00 | 0.80 | 0.80 | 96 | 1013.2 |
| 20260901034604 | 69 | 0 | 0.0 | 1.0 | 0.00 | 0.80 | 0.80 | 96 | 1015.1 |
| 20260901034504 | 69 | 112 | 0.0 | 1.0 | 0.00 | 0.80 | 0.80 | 96 | 1013.3 |
| 20260901034004 | 69 | 100 | 0.0 | 1.0 | 0.00 | 0.80 | 0.80 | 96 | 1013.4 |
| 20260901033503 | 69 | 80 | 0.0 | 0.0 | 0.00 | 0.80 | 0.80 | 96 | 1013.4 |
| 20260901033114 | 69 | 0 | 0.0 | 0.0 | 0.00 | 0.80 | 0.80 | 96 | 1015.0 |
| 20260901032503 | 69 | 105 | 0.0 | 0.0 | 0.00 | 0.80 | 0.80 | 96 | 1013.5 |
| 20260901032004 | 69 | 62 | 0.0 | 1.0 | 0.00 | 0.80 | 0.80 | 96 | 1013.6 |
| 20260901031555 | 69 | 0 | 0.0 | 1.0 | 0.00 | 0.80 | 0.80 | 96 | 1015.3 |
| 20260901031504 | 69 | 9 | 0.0 | 1.0 | 0.00 | 0.80 | 0.80 | 96 | 1013.5 |
| 20260901030103 | 69 | 0 | 0.0 | 1.0 | 0.00 | 0.80 | 0.80 | 95 | 1015.4 |
| 20260901025003 | 69 | 178 | 0.0 | 1.0 | 0.00 | 0.80 | 0.80 | 96 | 1013.8 |
| 20260901024558 | 69 | 0 | 0.0 | 1.0 | 0.00 | 0.80 | 0.80 | 95 | 1015.4 |
| 20260901024503 | 69 | 92 | 0.0 | 0.0 | 0.00 | 0.80 | 0.80 | 96 | 1013.9 |
| 20260901024004 | 69 | 73 | 0.0 | 0.0 | 0.00 | 0.80 | 0.80 | 96 | 1014.0 |
| 20260901023504 | 69 | 96 | 0.0 | 1.0 | 0.00 | 0.80 | 0.80 | 96 | 1014.1 |
| 20260901023056 | 69 | 0 | 0.0 | 1.0 | 0.00 | 0.80 | 0.80 | 95 | 1015.6 |
| 20260901023004 | 70 | 250 | 0.0 | 1.0 | 0.00 | 0.80 | 0.80 | 96 | 1014.1 |
| 20260901022003 | 70 | 83 | 0.0 | 0.0 | 0.00 | 0.80 | 0.80 | 96 | 1014.0 |
| 20260901021552 | 69 | 0 | 0.0 | 0.0 | 0.00 | 0.80 | 0.80 | 95 | 1015.6 |
| 20260901021503 | 70 | 82 | 0.0 | 0.0 | 0.00 | 0.80 | 0.80 | 96 | 1014.0 |
| 20260901020051 | 69 | 0 | 0.0 | 1.0 | 0.00 | 0.80 | 0.80 | 96 | 1015.6 |
| 20260901020004 | 70 | 99 | 0.0 | 1.0 | 0.00 | 0.80 | 0.80 | 96 | 1014.1 |
| 20260901015004 | 70 | 130 | 0.0 | 0.0 | 0.00 | 0.80 | 0.80 | 96 | 1014.0 |
| 20260901014609 | 69 | 0 | 0.0 | 1.0 | 0.00 | 0.80 | 0.80 | 96 | 1015.7 |
| 20260901014504 | 70 | 97 | 0.0 | 1.0 | 0.00 | 0.80 | 0.80 | 96 | 1014.1 |
| 20260901014003 | 70 | 226 | 0.0 | 1.0 | 0.00 | 0.80 | 0.80 | 96 | 1014.1 |
| 20260901013503 | 70 | 153 | 0.0 | 0.0 | 0.00 | 0.80 | 0.80 | 96 | 1014.1 |
| 20260901013058 | 69 | 0 | 0.0 | 1.0 | 0.00 | 0.80 | 0.80 | 95 | 1015.8 |
| 20260901013004 | 70 | 91 | 0.0 | 0.0 | 0.00 | 0.80 | 0.80 | 96 | 1014.1 |
| 20260901012004 | 70 | 300 | 0.0 | 1.0 | 0.00 | 0.80 | 0.80 | 96 | 1014.1 |
| 20260901011552 | 69 | 0 | 0.0 | 1.0 | 0.00 | 0.80 | 0.80 | 95 | 1015.7 |
| 20260901011504 | 70 | 296 | 0.0 | 1.0 | 0.00 | 0.80 | 0.80 | 96 | 1014.0 |
| 20260901011004 | 69 | 311 | 0.0 | 1.0 | 0.00 | 0.80 | 0.80 | 96 | 1013.8 |
| 20260901010503 | 69 | 62 | 0.0 | 0.0 | 0.00 | 0.80 | 0.80 | 96 | 1013.7 |
| 20260901010059 | 69 | 0 | 0.0 | 1.0 | 0.00 | 0.80 | 0.80 | 95 | 1015.4 |
| 20260901010003 | 69 | 83 | 0.0 | 1.0 | 0.00 | 0.80 | 0.80 | 96 | 1013.7 |
| 20260901005503 | 70 | 89 | 0.0 | 0.0 | 0.00 | 0.80 | 0.80 | 96 | 1013.7 |
| 20260901005004 | 70 | 75 | 0.0 | 0.0 | 0.00 | 0.80 | 0.80 | 96 | 1013.7 |
| 20260901004616 | 69 | 0 | 0.0 | 1.0 | 0.00 | 0.80 | 0.80 | 95 | 1015.4 |
| 20260901004504 | 70 | 85 | 0.0 | 1.0 | 0.00 | 0.80 | 0.80 | 96 | 1013.7 |
| 20260901004004 | 70 | 125 | 0.0 | 0.0 | 0.00 | 0.80 | 0.80 | 96 | 1013.7 |
| 20260901003504 | 70 | 95 | 0.0 | 1.0 | 0.00 | 0.80 | 0.80 | 96 | 1013.7 |
| 20260901003101 | 69 | 0 | 0.0 | 1.0 | 0.00 | 0.80 | 0.80 | 95 | 1015.5 |
| 20260901003004 | 70 | 130 | 0.0 | 1.0 | 0.00 | 0.80 | 0.80 | 96 | 1013.7 |
| 20260901002503 | 70 | 106 | 0.0 | 1.0 | 0.00 | 0.80 | 0.80 | 96 | 1013.7 |
| 20260901002003 | 70 | 89 | 0.0 | 1.0 | 0.00 | 0.80 | 0.80 | 96 | 1013.7 |
| 20260901001602 | 69 | 0 | 0.0 | 1.0 | 0.00 | 0.80 | 0.80 | 95 | 1015.4 |
| 20260901001503 | 70 | 58 | 0.0 | 0.0 | 0.00 | 0.80 | 0.80 | 96 | 1013.8 |
| 20260901001003 | 70 | 213 | 0.0 | 1.0 | 0.00 | 0.80 | 0.80 | 96 | 1013.7 |
| 20260901000504 | 70 | 136 | 0.0 | 1.0 | 0.00 | 0.80 | 0.80 | 96 | 1013.8 |
| 20260901000104 | 69 | 0 | 0.0 | 1.0 | 0.00 | 0.80 | 0.80 | 95 | 1015.6 |
| 20260901000004 | 70 | 300 | 0.0 | 1.0 | 0.00 | 0.80 | 0.80 | 96 | 1013.9 |
| 20260831235504 | 70 | 115 | 0.0 | 1.0 | 0.00 | 0.80 | 0.80 | 96 | 1013.8 |
| 20260831235004 | 70 | 99 | 0.0 | 2.0 | 0.00 | 0.80 | 0.80 | 96 | 1013.8 |
| 20260831234554 | 69 | 142 | 0.0 | 2.0 | 0.00 | 0.80 | 0.80 | 95 | 1015.5 |
| 20260831234504 | 70 | 155 | 1.0 | 2.0 | 0.00 | 0.80 | 0.80 | 96 | 1013.8 |
| 20260831234004 | 70 | 105 | 0.0 | 1.0 | 0.00 | 0.80 | 0.80 | 96 | 1013.8 |
| 20260831233101 | 69 | 0 | 0.0 | 1.0 | 0.00 | 0.80 | 0.80 | 95 | 1015.5 |
| 20260831233004 | 70 | 148 | 0.0 | 1.0 | 0.00 | 0.80 | 0.80 | 96 | 1013.9 |
| 20260831232503 | 70 | 106 | 0.0 | 1.0 | 0.00 | 0.80 | 0.80 | 96 | 1013.9 |
| 20260831232004 | 70 | 17 | 0.0 | 1.0 | 0.00 | 0.80 | 0.80 | 96 | 1013.9 |
| 20260831231603 | 69 | 0 | 0.0 | 3.0 | 0.00 | 0.80 | 0.80 | 95 | 1015.5 |
| 20260831231504 | 70 | 67 | 0.0 | 1.0 | 0.00 | 0.80 | 0.80 | 96 | 1013.9 |
| 20260831231004 | 70 | 31 | 0.0 | 2.0 | 0.01 | 0.80 | 0.80 | 96 | 1013.8 |
| 20260831230504 | 70 | 228 | 1.0 | 3.0 | 0.01 | 0.80 | 0.80 | 96 | 1013.8 |
| 20260831230057 | 69 | 89 | 1.0 | 3.0 | 0.01 | 0.80 | 0.80 | 95 | 1015.5 |
| 20260831230004 | 70 | 89 | 1.0 | 3.0 | 0.01 | 0.80 | 0.80 | 96 | 1013.9 |
| 20260831225504 | 70 | 321 | 1.0 | 2.0 | 0.01 | 0.80 | 0.80 | 96 | 1013.9 |
| 20260831225003 | 70 | 82 | 1.0 | 2.0 | 0.01 | 0.80 | 0.80 | 96 | 1014.0 |
| 20260831224555 | 69 | 1 | 2.0 | 3.0 | 0.01 | 0.80 | 0.80 | 95 | 1015.6 |
| 20260831224503 | 70 | 341 | 2.0 | 3.0 | 0.01 | 0.80 | 0.80 | 96 | 1014.1 |
| 20260831224003 | 70 | 88 | 0.0 | 1.0 | 0.01 | 0.80 | 0.80 | 96 | 1013.9 |
| 20260831223504 | 70 | 234 | 0.0 | 1.0 | 0.01 | 0.80 | 0.80 | 96 | 1014.0 |
| 20260831223059 | 69 | 89 | 1.0 | 2.0 | 0.01 | 0.80 | 0.80 | 95 | 1015.6 |
| 20260831223003 | 70 | 337 | 1.0 | 2.0 | 0.01 | 0.80 | 0.80 | 96 | 1014.0 |
| 20260831222503 | 70 | 62 | 1.0 | 2.0 | 0.01 | 0.80 | 0.80 | 96 | 1013.9 |
| 20260831222004 | 70 | 319 | 0.0 | 1.0 | 0.01 | 0.80 | 0.80 | 96 | 1013.9 |
| 20260831221554 | 69 | 0 | 0.0 | 1.0 | 0.01 | 0.80 | 0.80 | 95 | 1015.5 |
| 20260831221004 | 70 | 117 | 0.0 | 1.0 | 0.00 | 0.79 | 0.79 | 96 | 1014.0 |
| 20260831220504 | 70 | 138 | 0.0 | 1.0 | 0.00 | 0.79 | 0.79 | 96 | 1014.0 |
| 20260831220053 | 69 | 0 | 0.0 | 1.0 | 0.00 | 0.79 | 0.79 | 95 | 1015.7 |
| 20260831215504 | 70 | 76 | 0.0 | 1.0 | 0.00 | 0.79 | 0.79 | 96 | 1014.2 |
| 20260831215004 | 70 | 40 | 0.0 | 1.0 | 0.00 | 0.79 | 0.79 | 96 | 1014.1 |
| 20260831214557 | 69 | 0 | 0.0 | 1.0 | 0.00 | 0.79 | 0.79 | 95 | 1015.8 |
| 20260831214504 | 70 | 6 | 1.0 | 1.0 | 0.00 | 0.79 | 0.79 | 96 | 1014.1 |
| 20260831214004 | 70 | 272 | 0.0 | 1.0 | 0.01 | 0.79 | 0.79 | 96 | 1014.1 |
| 20260831213054 | 69 | 0 | 0.0 | 1.0 | 0.01 | 0.79 | 0.79 | 95 | 1015.7 |
| 20260831213003 | 70 | 133 | 0.0 | 1.0 | 0.01 | 0.79 | 0.79 | 96 | 1014.0 |
| 20260831212503 | 70 | 222 | 0.0 | 1.0 | 0.02 | 0.79 | 0.79 | 96 | 1014.1 |
| 20260831212003 | 70 | 357 | 0.0 | 1.0 | 0.03 | 0.79 | 0.79 | 96 | 1014.2 |
| 20260831211555 | 69 | 0 | 0.0 | 2.0 | 0.03 | 0.79 | 0.79 | 95 | 1015.9 |
| 20260831211503 | 70 | 42 | 1.0 | 1.0 | 0.03 | 0.79 | 0.79 | 96 | 1014.2 |
| 20260831211003 | 70 | 329 | 0.0 | 2.0 | 0.04 | 0.79 | 0.79 | 96 | 1014.3 |
| 20260831210504 | 70 | 174 | 1.0 | 2.0 | 0.05 | 0.79 | 0.79 | 96 | 1014.3 |
| 20260831210058 | 69 | 0 | 0.0 | 2.0 | 0.06 | 0.79 | 0.79 | 95 | 1015.9 |
| 20260831210004 | 70 | 108 | 1.0 | 2.0 | 0.07 | 0.79 | 0.79 | 96 | 1014.2 |
| 20260831205504 | 70 | 198 | 1.0 | 2.0 | 0.07 | 0.79 | 0.79 | 96 | 1014.3 |
| 20260831204555 | 69 | 0 | 0.0 | 1.0 | 0.08 | 0.79 | 0.79 | 95 | 1016.0 |
| 20260831204504 | 70 | 136 | 0.0 | 1.0 | 0.08 | 0.79 | 0.79 | 96 | 1014.2 |
| 20260831204004 | 70 | 107 | 0.0 | 1.0 | 0.08 | 0.78 | 0.78 | 96 | 1014.2 |
| 20260831203503 | 69 | 121 | 0.0 | 1.0 | 0.09 | 0.78 | 0.78 | 95 | 1014.3 |
| 20260831203056 | 69 | 0 | 0.0 | 2.0 | 0.10 | 0.78 | 0.78 | 95 | 1016.1 |
| 20260831202504 | 69 | 274 | 0.0 | 2.0 | 0.09 | 0.77 | 0.77 | 95 | 1014.4 |
| 20260831201603 | 69 | 223 | 0.0 | 2.0 | 0.09 | 0.76 | 0.76 | 95 | 1016.1 |
| 20260831201504 | 70 | 224 | 0.0 | 1.0 | 0.10 | 0.76 | 0.76 | 95 | 1014.4 |
| 20260831201003 | 69 | 191 | 0.0 | 2.0 | 0.13 | 0.75 | 0.75 | 95 | 1014.5 |
| 20260831200503 | 69 | 198 | 1.0 | 2.0 | 0.16 | 0.74 | 0.74 | 95 | 1014.4 |
| 20260831200058 | 69 | 0 | 0.0 | 3.0 | 0.19 | 0.73 | 0.73 | 95 | 1016.2 |
| 20260831200003 | 70 | 185 | 1.0 | 2.0 | 0.19 | 0.72 | 0.72 | 96 | 1014.6 |
| 20260831195003 | 69 | 133 | 1.0 | 2.0 | 0.20 | 0.72 | 0.72 | 95 | 1014.8 |
| 20260831194615 | 69 | 0 | 0.0 | 2.0 | 0.19 | 0.71 | 0.71 | 95 | 1016.3 |
| 20260831194503 | 69 | 243 | 0.0 | 2.0 | 0.19 | 0.71 | 0.71 | 95 | 1014.8 |
| 20260831194004 | 69 | 149 | 0.0 | 1.0 | 0.19 | 0.70 | 0.70 | 95 | 1014.9 |
| 20260831193504 | 69 | 108 | 0.0 | 2.0 | 0.20 | 0.69 | 0.69 | 95 | 1014.9 |
| 20260831193054 | 69 | 89 | 0.0 | 2.0 | 0.22 | 0.68 | 0.68 | 95 | 1016.5 |
| 20260831193004 | 69 | 101 | 1.0 | 2.0 | 0.23 | 0.68 | 0.68 | 95 | 1014.9 |
| 20260831192504 | 69 | 91 | 1.0 | 2.0 | 0.27 | 0.68 | 0.68 | 95 | 1015.1 |
| 20260831192004 | 69 | 196 | 1.0 | 2.0 | 0.28 | 0.68 | 0.68 | 95 | 1015.2 |
| 20260831191606 | 69 | 206 | 1.0 | 4.0 | 0.28 | 0.66 | 0.66 | 94 | 1016.7 |
| 20260831191504 | 69 | 205 | 1.0 | 3.0 | 0.28 | 0.66 | 0.66 | 95 | 1015.2 |
| 20260831191004 | 69 | 189 | 1.0 | 3.0 | 0.28 | 0.62 | 0.62 | 95 | 1015.2 |
| 20260831190504 | 69 | 241 | 2.0 | 3.0 | 0.24 | 0.58 | 0.58 | 95 | 1015.2 |
| 20260831190117 | 69 | 234 | 2.0 | 7.0 | 0.19 | 0.52 | 0.52 | 94 | 1016.7 |
| 20260831190004 | 70 | 172 | 3.0 | 6.0 | 0.19 | 0.53 | 0.53 | 95 | 1015.2 |
| 20260831185503 | 70 | 182 | 1.0 | 3.0 | 0.20 | 0.52 | 0.52 | 95 | 1015.3 |
| 20260831184602 | 69 | 173 | 1.0 | 3.0 | 0.21 | 0.52 | 0.52 | 95 | 1016.7 |
| 20260831184503 | 70 | 163 | 1.0 | 2.0 | 0.21 | 0.52 | 0.52 | 95 | 1015.1 |
| 20260831184003 | 70 | 181 | 1.0 | 3.0 | 0.20 | 0.51 | 0.51 | 95 | 1015.2 |
| 20260831183503 | 70 | 199 | 1.0 | 2.0 | 0.18 | 0.49 | 0.49 | 95 | 1015.1 |
| 20260831183101 | 69 | 108 | 0.0 | 3.0 | 0.15 | 0.46 | 0.46 | 95 | 1016.6 |
| 20260831183004 | 70 | 102 | 1.0 | 3.0 | 0.14 | 0.45 | 0.45 | 95 | 1015.1 |
| 20260831182504 | 70 | 180 | 1.0 | 3.0 | 0.10 | 0.41 | 0.41 | 95 | 1015.3 |
| 20260831182004 | 70 | 288 | 1.0 | 3.0 | 0.09 | 0.40 | 0.40 | 95 | 1015.4 |
| 20260831181601 | 69 | 193 | 0.0 | 3.0 | 0.07 | 0.38 | 0.38 | 94 | 1016.8 |
| 20260831181504 | 70 | 123 | 1.0 | 2.0 | 0.07 | 0.38 | 0.38 | 95 | 1015.3 |
| 20260831181004 | 70 | 174 | 1.0 | 3.0 | 0.03 | 0.34 | 0.34 | 95 | 1015.4 |
| 20260831180504 | 70 | 177 | 1.0 | 3.0 | 0.04 | 0.34 | 0.34 | 95 | 1015.5 |
| 20260831180054 | 70 | 202 | 0.0 | 3.0 | 0.04 | 0.34 | 0.34 | 94 | 1017.0 |
| 20260831180004 | 70 | 177 | 1.0 | 3.0 | 0.05 | 0.34 | 0.34 | 95 | 1015.5 |
| 20260831175004 | 70 | 178 | 2.0 | 3.0 | 0.04 | 0.32 | 0.32 | 95 | 1015.5 |
| 20260831174634 | 70 | 178 | 1.0 | 4.0 | 0.03 | 0.31 | 0.31 | 94 | 1017.0 |
| 20260831174503 | 70 | 171 | 1.0 | 3.0 | 0.03 | 0.31 | 0.31 | 95 | 1015.6 |
| 20260831174003 | 70 | 217 | 0.0 | 3.0 | 0.04 | 0.31 | 0.31 | 95 | 1015.7 |
| 20260831173503 | 70 | 232 | 1.0 | 2.0 | 0.04 | 0.31 | 0.31 | 95 | 1015.6 |
| 20260831173059 | 70 | 0 | 0.0 | 3.0 | 0.04 | 0.31 | 0.31 | 95 | 1017.0 |
| 20260831173003 | 70 | 169 | 1.0 | 2.0 | 0.05 | 0.31 | 0.31 | 96 | 1015.6 |
| 20260831172503 | 70 | 139 | 1.0 | 3.0 | 0.05 | 0.31 | 0.31 | 95 | 1015.5 |
| 20260831172003 | 70 | 127 | 0.0 | 2.0 | 0.05 | 0.31 | 0.31 | 95 | 1015.7 |
| 20260831171554 | 70 | 152 | 0.0 | 3.0 | 0.05 | 0.31 | 0.31 | 94 | 1017.3 |
| 20260831171503 | 70 | 172 | 1.0 | 3.0 | 0.05 | 0.31 | 0.31 | 95 | 1015.9 |
| 20260831171004 | 71 | 184 | 1.0 | 3.0 | 0.06 | 0.31 | 0.31 | 96 | 1015.9 |
| 20260831170504 | 70 | 80 | 0.0 | 2.0 | 0.05 | 0.30 | 0.30 | 96 | 1016.0 |
| 20260831170058 | 70 | 201 | 1.0 | 3.0 | 0.05 | 0.30 | 0.30 | 95 | 1017.6 |
| 20260831165503 | 70 | 121 | 0.0 | 2.0 | 0.03 | 0.28 | 0.28 | 95 | 1016.0 |
| 20260831165003 | 70 | 170 | 0.0 | 2.0 | 0.03 | 0.28 | 0.28 | 95 | 1016.0 |
| 20260831164556 | 70 | 0 | 0.0 | 3.0 | 0.04 | 0.29 | 0.28 | 95 | 1017.4 |
| 20260831164503 | 70 | 145 | 1.0 | 2.0 | 0.04 | 0.28 | 0.28 | 95 | 1016.0 |
| 20260831164004 | 70 | 176 | 1.0 | 3.0 | 0.03 | 0.27 | 0.27 | 95 | 1016.0 |
| 20260831163504 | 70 | 212 | 2.0 | 3.0 | 0.05 | 0.28 | 0.27 | 95 | 1016.2 |
| 20260831163055 | 69 | 0 | 0.0 | 2.0 | 0.05 | 0.28 | 0.27 | 95 | 1017.7 |
| 20260831163004 | 70 | 259 | 1.0 | 2.0 | 0.04 | 0.27 | 0.26 | 96 | 1016.3 |
| 20260831162504 | 70 | 129 | 1.0 | 2.0 | 0.05 | 0.27 | 0.26 | 95 | 1016.3 |
| 20260831162004 | 70 | 239 | 1.0 | 2.0 | 0.05 | 0.27 | 0.26 | 95 | 1016.3 |
| 20260831161605 | 70 | 240 | 0.0 | 2.0 | 0.05 | 0.27 | 0.26 | 95 | 1017.8 |
| 20260831161504 | 70 | 147 | 1.0 | 2.0 | 0.05 | 0.27 | 0.26 | 96 | 1016.4 |
| 20260831160058 | 69 | 89 | 0.0 | 2.0 | 0.05 | 0.26 | 0.25 | 95 | 1018.1 |
| 20260831160003 | 70 | 354 | 1.0 | 2.0 | 0.05 | 0.26 | 0.25 | 96 | 1016.5 |
| 20260831155503 | 70 | 99 | 1.0 | 2.0 | 0.05 | 0.26 | 0.25 | 96 | 1016.5 |
| 20260831154619 | 69 | 1 | 0.0 | 2.0 | 0.05 | 0.25 | 0.24 | 96 | 1018.1 |
| 20260831154503 | 70 | 96 | 1.0 | 2.0 | 0.05 | 0.25 | 0.24 | 96 | 1016.5 |
| 20260831154003 | 69 | 22 | 1.0 | 2.0 | 0.05 | 0.25 | 0.24 | 96 | 1016.4 |
| 20260831153503 | 69 | 39 | 0.0 | 2.0 | 0.04 | 0.23 | 0.22 | 96 | 1016.5 |
| 20260831153115 | 69 | 0 | 0.0 | 2.0 | 0.04 | 0.23 | 0.22 | 95 | 1018.0 |
| 20260831153003 | 69 | 94 | 0.0 | 2.0 | 0.04 | 0.23 | 0.22 | 96 | 1016.6 |
| 20260831152503 | 69 | 152 | 0.0 | 1.0 | 0.05 | 0.22 | 0.21 | 96 | 1016.7 |
| 20260831152003 | 69 | 49 | 0.0 | 2.0 | 0.06 | 0.22 | 0.21 | 95 | 1016.8 |
| 20260831151612 | 69 | 331 | 0.0 | 2.0 | 0.07 | 0.22 | 0.21 | 95 | 1018.3 |
| 20260831151503 | 69 | 330 | 0.0 | 1.0 | 0.07 | 0.22 | 0.21 | 96 | 1016.8 |
| 20260831151004 | 69 | 127 | 0.0 | 1.0 | 0.06 | 0.21 | 0.20 | 96 | 1016.7 |
| 20260831150504 | 69 | 164 | 0.0 | 1.0 | 0.06 | 0.21 | 0.20 | 96 | 1016.6 |
| 20260831150101 | 68 | 0 | 0.0 | 1.0 | 0.07 | 0.21 | 0.20 | 95 | 1018.1 |
| 20260831150004 | 69 | 207 | 0.0 | 1.0 | 0.08 | 0.21 | 0.20 | 95 | 1016.6 |
| 20260831145004 | 69 | 151 | 0.0 | 1.0 | 0.09 | 0.21 | 0.20 | 96 | 1016.6 |
| 20260831144557 | 68 | 0 | 0.0 | 2.0 | 0.09 | 0.20 | 0.19 | 95 | 1018.1 |
| 20260831143053 | 68 | 1 | 0.0 | 1.0 | 0.10 | 0.19 | 0.18 | 95 | 1018.1 |
| 20260831141604 | 67 | 0 | 0.0 | 2.0 | 0.07 | 0.15 | 0.14 | 95 | 1017.8 |
| 20260831140107 | 67 | 135 | 0.0 | 2.0 | 0.09 | 0.14 | 0.13 | 95 | 1017.6 |
| 20260831134603 | 67 | 0 | 0.0 | 1.0 | 0.08 | 0.11 | 0.10 | 95 | 1017.7 |
| 20260831133103 | 67 | 0 | 0.0 | 2.0 | 0.07 | 0.09 | 0.08 | 95 | 1017.9 |
| 20260831131601 | 67 | 0 | 0.0 | 1.0 | 0.06 | 0.08 | 0.07 | 95 | 1018.1 |
| 20260831130109 | 67 | 0 | 0.0 | 1.0 | 0.03 | 0.05 | 0.04 | 95 | 1018.1 |
| 20260831124555 | 67 | 0 | 0.0 | 2.0 | 0.01 | 0.03 | 0.02 | 95 | 1018.1 |
| 20260831123103 | 67 | 0 | 0.0 | 2.0 | 0.00 | 0.02 | 0.01 | 95 | 1017.9 |
| 20260831121624 | 67 | 0 | 0.0 | 2.0 | 0.00 | 0.02 | 0.01 | 95 | 1017.9 |
| 20260831120055 | 66 | 295 | 0.0 | 1.0 | 0.00 | 0.02 | 0.01 | 95 | 1018.3 |
| 20260831114604 | 66 | 0 | 0.0 | 1.0 | 0.00 | 0.02 | 0.01 | 95 | 1018.3 |
| 20260831113102 | 66 | 0 | 0.0 | 1.0 | 0.00 | 0.02 | 0.01 | 94 | 1018.2 |
| 20260831113003 | 66 | 124 | 0.0 | 1.0 | 0.00 | 0.02 | 0.01 | 95 | 1016.8 |
| 20260831112004 | 66 | 234 | 0.0 | 1.0 | 0.00 | 0.02 | 0.01 | 95 | 1017.0 |
| 20260831111556 | 65 | 0 | 0.0 | 1.0 | 0.00 | 0.02 | 0.01 | 94 | 1018.3 |
| 20260831110057 | 65 | 0 | 0.0 | 1.0 | 0.00 | 0.02 | 0.01 | 94 | 1018.1 |
| 20260831110004 | 66 | 131 | 0.0 | 1.0 | 0.00 | 0.02 | 0.01 | 95 | 1016.7 |
| 20260831104556 | 66 | 0 | 0.0 | 2.0 | 0.01 | 0.02 | 0.01 | 94 | 1018.3 |
| 20260831103055 | 65 | 241 | 1.0 | 3.0 | 0.01 | 0.02 | 0.01 | 95 | 1018.0 |
| 20260831101605 | 65 | 178 | 1.0 | 2.0 | 0.01 | 0.02 | 0.01 | 94 | 1017.8 |
| 20260831100057 | 64 | 0 | 0.0 | 1.0 | 0.01 | 0.02 | 0.01 | 94 | 1018.2 |
| 20260831094604 | 64 | 0 | 0.0 | 2.0 | 0.00 | 0.01 | 0.00 | 94 | 1018.3 |
| 20260831093149 | 64 | 197 | 0.0 | 2.0 | 0.00 | 0.01 | 0.00 | 94 | 1018.2 |
| 20260831091554 | 64 | 0 | 0.0 | 1.0 | 0.00 | 0.01 | 0.00 | 94 | 1018.3 |
| 20260831090056 | 64 | 0 | 0.0 | 1.0 | 0.00 | 0.01 | 0.00 | 94 | 1018.2 |